1280880025661,0.583440
1280880085661,0.583087
1280880145661,0.591846
1280880205661,0.582630
1280880265661,0.590190
1280880325661,0.589210
1280880385661,0.588698
1280880445661,0.585297
1280880505661,0.592373
1280880565661,0.581273
1280880625661,0.589351
1280880685661,0.587894
1280880745661,0.585562
1280880805661,0.588259
1280880865661,0.587902
1280880925661,0.584956
1280880985661,0.583688
1280881045661,0.592289
1280881105661,0.582366
1280881165661,0.584476
1280881225661,0.585910
1280881285661,0.582424
1280881345661,0.581414
1280881405661,0.594602
1280881465661,0.597007
1280881525661,0.584775
1280881585661,0.587734
1280881645661,0.588443
1280881705661,0.592612
1280881765661,0.583223
1280881825661,0.587758
1280881885661,0.591119
1280881945661,0.591500
1280882005661,0.591128
1280882065661,0.593405
1280882125661,0.589786
1280882185661,0.596462
1280882245661,0.587003
1280882305661,0.591294
1280882365661,0.596100
1280882425661,0.592231
1280882485661,0.587761
1280882545661,0.594864
1280882605661,0.586845
1280882665661,0.583537
1280882725661,0.589686
1280882785661,0.582342
1280882845661,0.587906
1280882905661,0.586913
1280882965661,0.597644
1280883025661,0.592760
1280883085661,0.584857
1280883145661,0.592925
1280883205661,0.589786
1280883265661,0.586025
1280883325661,0.592047
1280883385661,0.590377
1280883445661,0.587852
1280883505661,0.588241
1280883565661,0.590908
1280883625670,0.587749
1280883685670,0.586050
1280883745670,0.583051
1280883805670,0.588273
1280883865670,0.589968
1280883925670,0.586698
1280883985670,0.586541
1280884045670,0.585416
1280884105670,0.586587
1280884165670,0.591157
1280884225670,0.588559
1280884285670,0.583800
1280884345670,0.585172
1280884405670,0.591065
1280884465670,0.590555
1280884525670,0.586095
1280884585670,0.592496
1280884645670,0.588057
1280884705670,0.588419
1280884765670,0.589993
1280884825670,0.586200
1280884885670,0.585188
1280884945670,0.595047
1280885005670,0.590769
1280885065670,0.582050
1280885125670,0.585611
1280885185670,0.588606
1280885245670,0.584725
1280885305670,0.591232
1280885365670,0.590595
1280885425670,0.585278
1280885485670,0.587159
1280885545670,0.581655
1280885605670,0.591376
1280885665670,0.585165
1280885725670,0.590658
1280885785670,0.581275
1280885845670,0.592925
1280885905670,0.588559
1280885965670,0.591146
1280886025670,0.590947
1280886085670,0.590748
1280886145670,0.591034
1280886205670,0.587499
1280886265670,0.588283
1280886325670,0.588877
1280886385670,0.590219
1280886445670,0.583547
1280886505670,0.583772
1280886565670,0.587763
1280886625670,0.588325
1280886685670,0.592736
1280886745670,0.582877
1280886805670,0.582889
1280886865670,0.583986
1280886925670,0.588229
1280886985670,0.590960
1280887045670,0.590309
1280887105670,0.586557
1280887165670,0.595187
1280887225679,0.590406
1280887285679,0.585034
1280887345679,0.586664
1280887405679,0.588713
1280887465679,0.588641
1280887525679,0.593014
1280887585679,0.587602
1280887645679,0.586135
1280887705679,0.588273
1280887765679,0.582573
1280887825679,0.587906
1280887885679,0.595213
1280887945679,0.587615
1280888005679,0.587010
1280888065679,0.590233
1280888125679,0.581481
1280888185679,0.597839
1280888245679,0.589470
1280888305679,0.593619
1280888365679,0.596331
1280888425679,0.595206
1280888485679,0.586333
1280888545679,0.589239
1280888605679,0.588415
1280888665679,0.593161
1280888725679,0.584854
1280888785679,0.586336
1280888845679,0.584391
1280888905679,0.584520
1280888965679,0.585933
1280889025679,0.590918
1280889085679,0.590454
1280889145679,0.586328
1280889205679,0.588087
1280889265679,0.588380
1280889325679,0.589947
1280889385679,0.591429
1280889445679,0.592839
1280889505679,0.591296
1280889565679,0.590368
1280889625679,0.597503
1280889685679,0.589379
1280889745679,0.592394
1280889805679,0.586895
1280889865679,0.592176
1280889925679,0.593661
1280889985679,0.593523
1280890045679,0.590938
1280890105679,0.594381
1280890165679,0.593020
1280890225679,0.593940
1280890285679,0.586518
1280890345679,0.589637
1280890405679,0.587374
1280890465679,0.593393
1280890525679,0.597516
1280890585679,0.605846
1280890645679,0.607710
1280890705679,0.602469
1280890765679,0.597372
1280890825688,0.599034
1280890885688,0.592494
1280890945688,0.597210
1280891005688,0.596162
1280891065688,0.590615
1280891125688,0.588574
1280891185688,0.592385
1280891245688,0.594866
1280891305688,0.589471
1280891365688,0.582000
1280891425688,0.585934
1280891485688,0.588212
1280891545688,0.590646
1280891605688,0.586830
1280891665688,0.591253
1280891725688,0.592644
1280891785688,0.582942
1280891845688,0.586282
1280891905688,0.584675
1280891965688,0.589345
1280892025688,0.586010
1280892085688,0.586322
1280892145688,0.592434
1280892205688,0.585898
1280892265688,0.590207
1280892325688,0.587775
1280892385688,0.589133
1280892445688,0.588988
1280892505688,0.584471
1280892565688,0.588428
1280892625688,0.586365
1280892685688,0.592311
1280892745688,0.590469
1280892805688,0.591104
1280892865688,0.594087
1280892925688,0.593221
1280892985688,0.582260
1280893045688,0.597199
1280893105688,0.594382
1280893165688,0.588063
1280893225688,0.587145
1280893285688,0.587085
1280893345688,0.589566
1280893405688,0.591909
1280893465688,0.586511
1280893525688,0.590910
1280893585688,0.593013
1280893645688,0.589067
1280893705688,0.594159
1280893765688,0.589342
1280893825688,0.592167
1280893885688,0.584027
1280893945688,0.584412
1280894005688,0.581448
1280894065688,0.586590
1280894125688,0.587186
1280894185688,0.587724
1280894245688,0.588590
1280894305688,0.585806
1280894365688,0.585552
1280894425696,0.587583
1280894485696,0.592948
1280894545696,0.587320
1280894605696,0.591201
1280894665696,0.588705
1280894725696,0.591407
1280894785696,0.591577
1280894845696,0.591253
1280894905696,0.587021
1280894965696,0.594211
1280895025696,0.590410
1280895085696,0.591394
1280895145696,0.588522
1280895205696,0.588161
1280895265696,0.586756
1280895325696,0.585858
1280895385696,0.592779
1280895445696,0.591044
1280895505696,0.593067
1280895565696,0.596284
1280895625696,0.590254
1280895685696,0.595506
1280895745696,0.597676
1280895805696,0.592604
1280895865696,0.589061
1280895925696,0.586031
1280895985696,0.590650
1280896045696,0.593559
1280896105696,0.594700
1280896165696,0.589757
1280896225696,0.592275
1280896285696,0.591314
1280896345696,0.586258
1280896405696,0.588203
1280896465696,0.590049
1280896525696,0.588995
1280896585696,0.590757
1280896645696,0.591301
1280896705696,0.591012
1280896765696,0.587550
1280896825696,0.589225
1280896885696,0.587566
1280896945696,0.593104
1280897005696,0.594030
1280897065696,0.591908
1280897125696,0.587219
1280897185696,0.592656
1280897245696,0.595875
1280897305696,0.586666
1280897365696,0.585255
1280897425696,0.587288
1280897485696,0.583643
1280897545696,0.597751
1280897605696,0.593780
1280897665696,0.598387
1280897725696,0.586055
1280897785696,0.591727
1280897845696,0.590162
1280897905696,0.598131
1280897965696,0.595074
1280898025704,0.593527
1280898085704,0.591201
1280898145704,0.583504
1280898205704,0.590097
1280898265704,0.597530
1280898325704,0.594528
1280898385704,0.590246
1280898445704,0.590057
1280898505704,0.592843
1280898565704,0.585795
1280898625704,0.591218
1280898685704,0.590548
1280898745704,0.589786
1280898805704,0.594241
1280898865704,0.600345
1280898925704,0.591721
1280898985704,0.592105
1280899045704,0.587759
1280899105704,0.592717
1280899165704,0.597443
1280899225704,0.594594
1280899285704,0.591628
1280899345704,0.593328
1280899405704,0.592195
1280899465704,0.592723
1280899525704,0.591352
1280899585704,0.585729
1280899645704,0.595360
1280899705704,0.589076
1280899765704,0.590102
1280899825704,0.590568
1280899885704,0.590773
1280899945704,0.589942
1280900005704,0.592682
1280900065704,0.587325
1280900125704,0.591686
1280900185704,0.597472
1280900245704,0.591647
1280900305704,0.590771
1280900365704,0.596285
1280900425704,0.582356
1280900485704,0.592664
1280900545704,0.591482
1280900605704,0.597685
1280900665704,0.597692
1280900725704,0.599326
1280900785704,0.590555
1280900845704,0.595029
1280900905704,0.597847
1280900965704,0.591143
1280901025704,0.590253
1280901085704,0.591236
1280901145704,0.589372
1280901205704,0.585699
1280901265704,0.590615
1280901325704,0.594072
1280901385704,0.592456
1280901445704,0.591087
1280901505704,0.588560
1280901565704,0.585608
1280901625713,0.592604
1280901685713,0.594921
1280901745713,0.585029
1280901805713,0.591612
1280901865713,0.592572
1280901925713,0.589452
1280901985713,0.594785
1280902045713,0.589769
1280902105713,0.589783
1280902165713,0.591599
1280902225713,0.585976
1280902285713,0.592093
1280902345713,0.588043
1280902405713,0.591643
1280902465713,0.598247
1280902525713,0.588239
1280902585713,0.589877
1280902645713,0.588707
1280902705713,0.585878
1280902765713,0.590937
1280902825713,0.590414
1280902885713,0.587775
1280902945713,0.593073
1280903005713,0.596894
1280903065713,0.592084
1280903125713,0.586005
1280903185713,0.593515
1280903245713,0.585310
1280903305713,0.593781
1280903365713,0.592515
1280903425713,0.592957
1280903485713,0.589245
1280903545713,0.591376
1280903605713,0.596148
1280903665713,0.589091
1280903725713,0.595247
1280903785713,0.594324
1280903845713,0.589059
1280903905713,0.592217
1280903965713,0.588461
1280904025713,0.593134
1280904085713,0.588360
1280904145713,0.594232
1280904205713,0.596237
1280904265713,0.589557
1280904325713,0.595052
1280904385713,0.597413
1280904445713,0.593722
1280904505713,0.593623
1280904565713,0.591162
1280904625713,0.586736
1280904685713,0.598742
1280904745713,0.591307
1280904805713,0.591697
1280904865713,0.596254
1280904925713,0.589237
1280904985713,0.588349
1280905045713,0.593928
1280905105713,0.587095
1280905165713,0.590187
1280905225721,0.594666
1280905285721,0.585855
1280905345721,0.591837
1280905405721,0.595241
1280905465721,0.594316
1280905525721,0.587573
1280905585721,0.595917
1280905645721,0.587005
1280905705721,0.591112
1280905765721,0.593352
1280905825721,0.591563
1280905885721,0.594718
1280905945721,0.592961
1280906005721,0.592765
1280906065721,0.594181
1280906125721,0.591096
1280906185721,0.588987
1280906245721,0.588788
1280906305721,0.582738
1280906365721,0.587024
1280906425721,0.593459
1280906485721,0.589357
1280906545721,0.585657
1280906605721,0.587376
1280906665721,0.591701
1280906725721,0.589129
1280906785721,0.591618
1280906845721,0.588366
1280906905721,0.588003
1280906965721,0.591367
1280907025721,0.587341
1280907085721,0.589817
1280907145721,0.588291
1280907205721,0.589870
1280907265721,0.587194
1280907325721,0.593811
1280907385721,0.589364
1280907445721,0.593387
1280907505721,0.589549
1280907565721,0.583414
1280907625721,0.591612
1280907685721,0.586890
1280907745721,0.592631
1280907805721,0.592850
1280907865721,0.588931
1280907925721,0.590774
1280907985721,0.589961
1280908045721,0.586102
1280908105721,0.594842
1280908165721,0.594206
1280908225721,0.587658
1280908285721,0.589451
1280908345721,0.589660
1280908405721,0.594009
1280908465721,0.587894
1280908525721,0.587376
1280908585721,0.586188
1280908645721,0.585863
1280908705721,0.589978
1280908765721,0.592031
1280908825730,0.587071
1280908885730,0.585434
1280908945730,0.591131
1280909005730,0.588935
1280909065730,0.586662
1280909125730,0.590613
1280909185730,0.590172
1280909245730,0.591063
1280909305730,0.593329
1280909365730,0.589291
1280909425730,0.590097
1280909485730,0.589647
1280909545730,0.587968
1280909605730,0.591537
1280909665730,0.595673
1280909725730,0.591687
1280909785730,0.591360
1280909845730,0.589341
1280909905730,0.593806
1280909965730,0.587953
1280910025730,0.590541
1280910085730,0.589661
1280910145730,0.590480
1280910205730,0.590637
1280910265730,0.588048
1280910325730,0.590773
1280910385730,0.585687
1280910445730,0.589804
1280910505730,0.586423
1280910565730,0.593891
1280910625730,0.596493
1280910685730,0.587598
1280910745730,0.585989
1280910805730,0.594422
1280910865730,0.593056
1280910925730,0.595209
1280910985730,0.594643
1280911045730,0.587936
1280911105730,0.594350
1280911165730,0.595793
1280911225730,0.596939
1280911285730,0.593914
1280911345730,0.589579
1280911405730,0.594960
1280911465730,0.591518
1280911525730,0.594149
1280911585730,0.587913
1280911645730,0.592075
1280911705730,0.589842
1280911765730,0.592020
1280911825730,0.598312
1280911885730,0.593944
1280911945730,0.591706
1280912005730,0.591994
1280912065730,0.590091
1280912125730,0.590563
1280912185730,0.599431
1280912245730,0.588875
1280912305730,0.587718
1280912365730,0.590212
1280912425738,0.592155
1280912485738,0.588575
1280912545738,0.594119
1280912605738,0.595008
1280912665738,0.597692
1280912725738,0.593125
1280912785738,0.600732
1280912845738,0.591941
1280912905738,0.591016
1280912965738,0.597117
1280913025738,0.592021
1280913085738,0.587752
1280913145738,0.592213
1280913205738,0.593222
1280913265738,0.592716
1280913325738,0.595167
1280913385738,0.600453
1280913445738,0.608809
1280913505738,0.608290
1280913565738,0.611590
1280913625738,0.612503
1280913685738,0.616446
1280913745738,0.615436
1280913805738,0.624654
1280913865738,0.621994
1280913925738,0.638765
1280913985738,0.629260
1280914045738,0.621628
1280914105738,0.622528
1280914165738,0.624867
1280914225738,0.625777
1280914285738,0.632111
1280914345738,0.629453
1280914405738,0.629138
1280914465738,0.632046
1280914525738,0.626932
1280914585738,0.626986
1280914645738,0.622562
1280914705738,0.621522
1280914765738,0.617999
1280914825738,0.616739
1280914885738,0.619756
1280914945738,0.623117
1280915005738,0.615389
1280915065738,0.614761
1280915125738,0.616908
1280915185738,0.622845
1280915245738,0.615948
1280915305738,0.615600
1280915365738,0.613479
1280915425738,0.616293
1280915485738,0.614973
1280915545738,0.614499
1280915605738,0.611307
1280915665738,0.612786
1280915725738,0.610726
1280915785738,0.609580
1280915845738,0.606891
1280915905738,0.607383
1280915965738,0.613324
1280916025746,0.600348
1280916085746,0.609314
1280916145746,0.605267
1280916205746,0.608737
1280916265746,0.609926
1280916325746,0.604637
1280916385746,0.603560
1280916445746,0.606032
1280916505746,0.600381
1280916565746,0.601162
1280916625746,0.605828
1280916685746,0.597823
1280916745746,0.607164
1280916805746,0.605197
1280916865746,0.602832
1280916925746,0.600012
1280916985746,0.599954
1280917045746,0.602257
1280917105746,0.593877
1280917165746,0.601859
1280917225746,0.597491
1280917285746,0.598809
1280917345746,0.593654
1280917405746,0.599940
1280917465746,0.596994
1280917525746,0.595570
1280917585746,0.597988
1280917645746,0.598070
1280917705746,0.592512
1280917765746,0.593161
1280917825746,0.597546
1280917885746,0.596135
1280917945746,0.595080
1280918005746,0.592583
1280918065746,0.596569
1280918125746,0.592883
1280918185746,0.595703
1280918245746,0.594888
1280918305746,0.599002
1280918365746,0.595297
1280918425746,0.598122
1280918485746,0.589070
1280918545746,0.591175
1280918605746,0.594487
1280918665746,0.593971
1280918725746,0.602077
1280918785746,0.596427
1280918845746,0.593996
1280918905746,0.600591
1280918965746,0.591315
1280919025746,0.589965
1280919085746,0.595543
1280919145746,0.594507
1280919205746,0.595099
1280919265746,0.595219
1280919325746,0.587394
1280919385746,0.597123
1280919445746,0.596457
1280919505746,0.594730
1280919565746,0.587912
1280919625755,0.591989
1280919685755,0.597991
1280919745755,0.592531
1280919805755,0.596753
1280919865755,0.592995
1280919925755,0.592776
1280919985755,0.595360
1280920045755,0.593057
1280920105755,0.591470
1280920165755,0.592567
1280920225755,0.595910
1280920285755,0.592831
1280920345755,0.595264
1280920405755,0.600623
1280920465755,0.597857
1280920525755,0.595928
1280920585755,0.590582
1280920645755,0.592555
1280920705755,0.595049
1280920765755,0.594181
1280920825755,0.603164
1280920885755,0.596872
1280920945755,0.592243
1280921005755,0.601441
1280921065755,0.597978
1280921125755,0.600077
1280921185755,0.595402
1280921245755,0.591147
1280921305755,0.596582
1280921365755,0.601263
1280921425755,0.600391
1280921485755,0.602960
1280921545755,0.603036
1280921605755,0.600126
1280921665755,0.597963
1280921725755,0.595819
1280921785755,0.595564
1280921845755,0.601935
1280921905755,0.599317
1280921965755,0.597155
1280922025755,0.597803
1280922085755,0.595201
1280922145755,0.595599
1280922205755,0.594580
1280922265755,0.589894
1280922325755,0.598791
1280922385755,0.595372
1280922445755,0.594960
1280922505755,0.594249
1280922565755,0.597312
1280922625755,0.590934
1280922685755,0.601663
1280922745755,0.596564
1280922805755,0.591469
1280922865755,0.597766
1280922925755,0.594913
1280922985755,0.593802
1280923045755,0.599569
1280923105755,0.592519
1280923165755,0.597559
1280923225763,0.587511
1280923285763,0.601239
1280923345763,0.603122
1280923405763,0.591810
1280923465763,0.595526
1280923525763,0.591868
1280923585763,0.589694
1280923645763,0.590448
1280923705763,0.598628
1280923765763,0.589054
1280923825763,0.593594
1280923885763,0.590847
1280923945763,0.590232
1280924005763,0.591556
1280924065763,0.590740
1280924125763,0.583572
1280924185763,0.592820
1280924245763,0.597544
1280924305763,0.586666
1280924365763,0.589548
1280924425763,0.595596
1280924485763,0.594800
1280924545763,0.590183
1280924605763,0.586637
1280924665763,0.589093
1280924725763,0.590635
1280924785763,0.590440
1280924845763,0.588065
1280924905763,0.591493
1280924965763,0.589429
1280925025763,0.585639
1280925085763,0.594377
1280925145763,0.589937
1280925205763,0.588887
1280925265763,0.591459
1280925325763,0.595845
1280925385763,0.589258
1280925445763,0.592238
1280925505763,0.594929
1280925565763,0.589744
1280925625763,0.594184
1280925685763,0.589926
1280925745763,0.593820
1280925805763,0.592154
1280925865763,0.589119
1280925925763,0.586270
1280925985763,0.589411
1280926045763,0.586382
1280926105763,0.587563
1280926165763,0.587992
1280926225763,0.591354
1280926285763,0.592307
1280926345763,0.591840
1280926405763,0.591017
1280926465763,0.590957
1280926525763,0.588792
1280926585763,0.592474
1280926645763,0.586118
1280926705763,0.592615
1280926765763,0.585842
1280926825772,0.590511
1280926885772,0.588780
1280926945772,0.595470
1280927005772,0.592059
1280927065772,0.583034
1280927125772,0.593713
1280927185772,0.591712
1280927245772,0.591012
1280927305772,0.591226
1280927365772,0.589463
1280927425772,0.587160
1280927485772,0.593757
1280927545772,0.589270
1280927605772,0.591797
1280927665772,0.590395
1280927725772,0.584164
1280927785772,0.597711
1280927845772,0.598389
1280927905772,0.588695
1280927965772,0.591483
1280928025772,0.589164
1280928085772,0.588825
1280928145772,0.591173
1280928205772,0.590419
1280928265772,0.599085
1280928325772,0.587978
1280928385772,0.587466
1280928445772,0.588119
1280928505772,0.590292
1280928565772,0.594864
1280928625772,0.591525
1280928685772,0.589815
1280928745772,0.596048
1280928805772,0.591711
1280928865772,0.587624
1280928925772,0.590314
1280928985772,0.594750
1280929045772,0.589436
1280929105772,0.592142
1280929165772,0.593506
1280929225772,0.591652
1280929285772,0.587490
1280929345772,0.587533
1280929405772,0.592816
1280929465772,0.595262
1280929525772,0.589560
1280929585772,0.594056
1280929645772,0.591691
1280929705772,0.593466
1280929765772,0.591094
1280929825772,0.593206
1280929885772,0.593445
1280929945772,0.589415
1280930005772,0.587236
1280930065772,0.588802
1280930125772,0.594395
1280930185772,0.582101
1280930245772,0.588901
1280930305772,0.594019
1280930365772,0.587597
1280930425781,0.589541
1280930485781,0.596529
1280930545781,0.591619
1280930605781,0.595903
1280930665781,0.599637
1280930725781,0.592262
1280930785781,0.590351
1280930845781,0.586389
1280930905781,0.589662
1280930965781,0.592849
1280931025781,0.588042
1280931085781,0.596121
1280931145781,0.593619
1280931205781,0.589754
1280931265781,0.590290
1280931325781,0.592594
1280931385781,0.590695
1280931445781,0.589283
1280931505781,0.588841
1280931565781,0.593046
1280931625781,0.589688
1280931685781,0.591809
1280931745781,0.594598
1280931805781,0.591441
1280931865781,0.594478
1280931925781,0.594319
1280931985781,0.592796
1280932045781,0.591904
1280932105781,0.593793
1280932165781,0.590627
1280932225781,0.586199
1280932285781,0.595040
1280932345781,0.589529
1280932405781,0.583136
1280932465781,0.591977
1280932525781,0.592511
1280932585781,0.593526
1280932645781,0.597485
1280932705781,0.593998
1280932765781,0.594928
1280932825781,0.592766
1280932885781,0.592254
1280932945781,0.597835
1280933005781,0.590075
1280933065781,0.594874
1280933125781,0.592453
1280933185781,0.592867
1280933245781,0.591382
1280933305781,0.598152
1280933365781,0.595043
1280933425781,0.597125
1280933485781,0.598304
1280933545781,0.595169
1280933605781,0.599203
1280933665781,0.592531
1280933725781,0.590650
1280933785781,0.597984
1280933845781,0.591242
1280933905781,0.593160
1280933965781,0.598312
1280934025790,0.600464
1280934085790,0.603731
1280934145790,0.600395
1280934205790,0.598716
1280934265790,0.596887
1280934325790,0.598165
1280934385790,0.594341
1280934445790,0.591710
1280934505790,0.604513
1280934565790,0.594655
1280934625790,0.599930
1280934685790,0.595448
1280934745790,0.594817
1280934805790,0.590986
1280934865790,0.598384
1280934925790,0.599769
1280934985790,0.597768
1280935045790,0.596732
1280935105790,0.600182
1280935165790,0.598366
1280935225790,0.592488
1280935285790,0.598420
1280935345790,0.597220
1280935405790,0.590393
1280935465790,0.589593
1280935525790,0.598184
1280935585790,0.598300
1280935645790,0.594752
1280935705790,0.602849
1280935765790,0.596309
1280935825790,0.596558
1280935885790,0.593113
1280935945790,0.594120
1280936005790,0.590013
1280936065790,0.602666
1280936125790,0.596653
1280936185790,0.597311
1280936245790,0.598568
1280936305790,0.595882
1280936365790,0.596901
1280936425790,0.597884
1280936485790,0.592045
1280936545790,0.600678
1280936605790,0.590021
1280936665790,0.594647
1280936725790,0.597886
1280936785790,0.597295
1280936845790,0.593211
1280936905790,0.594543
1280936965790,0.591221
1280937025790,0.596295
1280937085790,0.600523
1280937145790,0.595420
1280937205790,0.597308
1280937265790,0.592986
1280937325790,0.587947
1280937385790,0.594785
1280937445790,0.599582
1280937505790,0.593055
1280937565790,0.593104
1280937625799,0.597346
1280937685799,0.591930
1280937745799,0.593445
1280937805799,0.592626
1280937865799,0.590546
1280937925799,0.595757
1280937985799,0.592669
1280938045799,0.603515
1280938105799,0.597004
1280938165799,0.589480
1280938225799,0.600859
1280938285799,0.588180
1280938345799,0.591169
1280938405799,0.592317
1280938465799,0.594329
1280938525799,0.600929
1280938585799,0.595988
1280938645799,0.592214
1280938705799,0.595277
1280938765799,0.600944
1280938825799,0.596030
1280938885799,0.591861
1280938945799,0.593789
1280939005799,0.596747
1280939065799,0.591667
1280939125799,0.596645
1280939185799,0.595952
1280939245799,0.600684
1280939305799,0.591026
1280939365799,0.590609
1280939425799,0.594099
1280939485799,0.595024
1280939545799,0.596376
1280939605799,0.598124
1280939665799,0.595235
1280939725799,0.591104
1280939785799,0.588564
1280939845799,0.588285
1280939905799,0.593808
1280939965799,0.594334
1280940025799,0.605873
1280940085799,0.591735
1280940145799,0.586345
1280940205799,0.586739
1280940265799,0.598897
1280940325799,0.595398
1280940385799,0.596520
1280940445799,0.591101
1280940505799,0.591609
1280940565799,0.590964
1280940625799,0.593397
1280940685799,0.595095
1280940745799,0.594966
1280940805799,0.589535
1280940865799,0.592429
1280940925799,0.591327
1280940985799,0.592285
1280941045799,0.589038
1280941105799,0.588693
1280941165799,0.587857
1280941225809,0.594315
1280941285809,0.595261
1280941825809,0.590473
1280941885809,0.634757
1280941945809,0.592539
1280942005809,0.590395
1280942065809,0.586791
1280942125809,0.589777
1280942185809,0.586078
1280942245809,0.587842
1280942305809,0.591203
1280942365809,0.585738
1280942425809,0.591427
1280942485809,0.585867
1280942545809,0.586083
1280942605809,0.594039
1280942665809,0.590591
1280942725809,0.590907
1280942785809,0.589427
1280942845809,0.593304
1280942905809,0.593151
1280942965809,0.586809
1280943025809,0.591235